Location: Beugnon
(47.6222°N, 3.7850°E)
Time: 08:51:44
(UTC+00:00)

Cosmos 1954 Rocket - Pass Details

Date: 09 April 2020
Orbit: 752 x 781 km, 74.1° (Epoch: 01 June)

Event Time Altitude Azimuth Distance (km) Brightness Sun altitude
Rises 19:27:47 0° 182° (S) 3,226 7.0 -10.6°
Reaches altitude 10° 19:30:14 10° 176° (S) 2,300 6.2 -11.0°
Maximum altitude 19:35:11 45° 105° (ESE) 1,031 4.2 -11.7°
Drops below altitude 10° 19:40:07 10° 33° (NNE) 2,298 6.4 -12.5°
Sets 19:42:34 0° 28° (NNE) 3,224 7.2 -12.8°
